Find Local Weather

World > North America > United States > Washington

Sunnyside, Washington Regional Weather

Lat: 46.32N, Lon: 120.01W
Wx Zone: WAZ027
Feedback

Sunnyside, WA Regional Weather

Expires:201902191100;;171301
ASUS46 KSEW 191010
RWRWA 

WASHINGTON REGIONAL WEATHER ROUNDUP
NATIONAL WEATHER SERVICE SEATTLE WA
200 AM PST TUE FEB 19 2019

NOTE:"FAIR" INDICATES FEW OR NO CLOUDS BELOW 12,000 FEET WITH NO 
SIGNIFICANT WEATHER AND/OR OBSTRUCTIONS TO VISIBILITY.


WAZ026-027-041>044-520-521-191100-
EAST SLOPES
  
CITY           SKY/WX    TMP DP  RH WIND       PRES   REMARKS
OMAK           CLEAR     10   6  84 NW6       30.25S                  
WENATCHEE      CLEAR     15  10  80 NE5       30.22S                  
ELLENSBURG     MOCLDY    14  10  84 N3        30.17F                  
YAKIMA         CLEAR     11   8  88 W8        30.25S                  
SUNNYSIDE ARPT SUNNY     16  15  94 CALM      30.26                   
YAKIMA TC      FAIR      15  12  87 CALM      30.20S                  
$$


SKY/WX - Weather  TMP - Temperature  DP - Dew Point  RH - Relative Humidity
WIND - Wind Direction/Speed PRES - Barometric Pressure VSB - Visibility
WCI - Wind Chill Index E13G22 Wind - East Wind 13 mph/Gusts of 22 mph